Weather History for Limnos, Greece

Change the Weather History Date:

Wednesday, October 31, 2012

  Actual Average Record
Temperature  
Mean Temperature 58 °F -  
Max Temperature 69 °F 60 °F 75 °F (2008)
Min Temperature 48 °F 48 °F 41 °F (2002)
Degree Days  
Heating Degree Days 6    
Growing Degree Days 8 (Base 50)    
Moisture  
Dew Point 48 °F    
Average Humidity 72    
Maximum Humidity 94    
Minimum Humidity 23    
Precipitation  
Precipitation 0.00 in 0.10 in - ()
Sea Level Pressure  
Sea Level Pressure 29.96 in    
Wind  
Wind Speed 3 mph ()    
Max Wind Speed 12 mph    
Max Gust Speed -    
Visibility 6.2 miles    
Events      
Averages and records for this station are not official NWS values.
T = Trace of Precipitation, MM = Missing Value Source: Averaged Metar Reports

Daily Weather History Graph

Daily Weather History Graph

Search for Another Location

Airport:

Trip Planner

Search our weather history database for the weather conditions in past years. The results will help you decide how hot, cold, wet, or windy it might be!

Date:

Astronomy

Oct. 31, 2012 Rise Set
Actual Time 6:47 AM EET 5:17 PM EET
Civil Twilight 6:19 AM EET 5:45 PM EET
Nautical Twilight 5:47 AM EET 6:17 PM EET
Astronomical Twilight 5:15 AM EET 6:49 PM EET
Moon 6:15 PM EET (10/31) 8:10 AM EET (10/31)
Length of Visible Light 11h 26m
Length of Day
10h 30m
Full, 98% of the Moon is Illuminated
Oct 31
Full
Nov 7
Last Quarter
Nov 14
New
Nov 20
First Quarter
Nov 28
Full

Hourly Weather History & Observations

Time (EET) Temp. Dew Point Humidity Pressure Visibility Wind Dir Wind Speed Gust Speed Precip Events Conditions
12:20 AM 46.4 °F 42.8 °F 87% 29.95 in - Variable 1.2 mph - N/A   Unknown
12:50 AM 48.2 °F 44.6 °F 87% 29.95 in - Variable 1.2 mph - N/A   Unknown
1:20 AM 46.4 °F 44.6 °F 93% 29.95 in - Variable 1.2 mph - N/A   Unknown
1:50 AM 48.2 °F 46.4 °F 93% 29.95 in 6.2 mi Calm Calm - N/A   Scattered Clouds
2:00 AM 48 °F 46 °F 88% 29.95 in 6 mi Calm Calm - -   Scattered Clouds
2:20 AM 48.2 °F 44.6 °F 87% 29.95 in - Variable 1.2 mph - N/A   Unknown
2:50 AM 48.2 °F 44.6 °F 87% 29.92 in - Variable 1.2 mph - N/A   Unknown
3:20 AM 50.0 °F 46.4 °F 87% 29.92 in - Variable 2.3 mph - N/A   Unknown
3:50 AM 50.0 °F 46.4 °F 87% 29.92 in - Variable 2.3 mph - N/A   Unknown
4:20 AM 50.0 °F 46.4 °F 87% 29.92 in - Variable 1.2 mph - N/A   Unknown
4:50 AM 50.0 °F 48.2 °F 94% 29.92 in 6.2 mi Variable 2.3 mph - N/A   Scattered Clouds
5:20 AM 50.0 °F 46.4 °F 87% 29.92 in 6.2 mi Variable 3.5 mph - N/A   Mostly Cloudy
5:50 AM 50.0 °F 48.2 °F 94% 29.95 in 6.2 mi Calm Calm - N/A   Mostly Cloudy
6:20 AM 50.0 °F 48.2 °F 94% 29.95 in 6.2 mi Variable 3.5 mph - N/A   Mostly Cloudy
6:50 AM 50.0 °F 48.2 °F 94% 29.95 in 6.2 mi Calm Calm - N/A   Mostly Cloudy
7:20 AM 51.8 °F 48.2 °F 88% 29.95 in 6.2 mi Calm Calm - N/A   Mostly Cloudy
7:50 AM 53.6 °F 51.8 °F 94% 29.95 in 6.2 mi Variable 3.5 mph - N/A   Mostly Cloudy
8:00 AM 54 °F 52 °F 90% 29.97 in 6 mi 3.5 mph - -   Scattered Clouds
8:20 AM 57.2 °F 53.6 °F 88% 29.95 in 6.2 mi Variable 3.5 mph - N/A   Mostly Cloudy
8:50 AM 59.0 °F 55.4 °F 88% 29.98 in 6.2 mi Calm Calm - N/A   Mostly Cloudy
9:20 AM 62.6 °F 55.4 °F 77% 29.98 in 6.2 mi ENE 4.6 mph - N/A   Mostly Cloudy
9:50 AM 64.4 °F 51.8 °F 64% 29.98 in 6.2 mi East 8.1 mph - N/A   Mostly Cloudy
10:20 AM 66.2 °F 50.0 °F 56% 29.98 in 6.2 mi East 9.2 mph - N/A   Mostly Cloudy
10:50 AM 66.2 °F 48.2 °F 52% 29.98 in 6.2 mi East 10.4 mph - N/A   Mostly Cloudy
11:20 AM 68.0 °F 46.4 °F 46% 29.98 in 6.2 mi East 11.5 mph - N/A   Mostly Cloudy
11:50 AM 68.0 °F 44.6 °F 43% 29.98 in 6.2 mi East 10.4 mph - N/A   Mostly Cloudy
12:20 PM 69.8 °F 46.4 °F 43% 29.98 in 6.2 mi ENE 10.4 mph - N/A   Mostly Cloudy
12:50 PM 69.8 °F 46.4 °F 43% 29.98 in 6.2 mi East 8.1 mph - N/A   Mostly Cloudy
1:20 PM 69.8 °F 42.8 °F 38% 29.98 in 6.2 mi East 8.1 mph - N/A   Mostly Cloudy
1:50 PM 69.8 °F 41.0 °F 35% 29.98 in 6.2 mi East 9.2 mph - N/A   Scattered Clouds
2:00 PM 70 °F 41 °F 23% 29.98 in 6 mi East 9.2 mph - -   Scattered Clouds
2:20 PM 69.8 °F 41.0 °F 35% 29.95 in 6.2 mi ENE 8.1 mph - N/A   Scattered Clouds
2:50 PM 69.8 °F 42.8 °F 38% 29.98 in 6.2 mi East 9.2 mph - N/A   Scattered Clouds
3:20 PM 69.8 °F 42.8 °F 38% 29.95 in 6.2 mi East 9.2 mph - N/A   Scattered Clouds
3:50 PM 68.0 °F 46.4 °F 46% 29.95 in 6.2 mi East 8.1 mph - N/A   Scattered Clouds
4:20 PM 68.0 °F 46.4 °F 46% 29.95 in 6.2 mi East 8.1 mph - N/A   Scattered Clouds
4:50 PM 66.2 °F 46.4 °F 49% 29.95 in 6.2 mi ENE 4.6 mph - N/A   Scattered Clouds
5:20 PM 62.6 °F 48.2 °F 59% 29.98 in 6.2 mi Variable 3.5 mph - N/A   Scattered Clouds
5:50 PM 59.0 °F 50.0 °F 72% 29.98 in 6.2 mi Variable 3.5 mph - N/A   Scattered Clouds
6:20 PM 57.2 °F 48.2 °F 72% 29.98 in 6.2 mi Variable 3.5 mph - N/A   Scattered Clouds
6:50 PM 55.4 °F 48.2 °F 77% 29.98 in 6.2 mi Calm Calm - N/A   Scattered Clouds
7:20 PM 57.2 °F 50.0 °F 77% 29.98 in 6.2 mi Calm Calm - N/A   Scattered Clouds
7:50 PM 57.2 °F 50.0 °F 77% 29.98 in 6.2 mi Calm Calm - N/A   Scattered Clouds
8:00 PM 56 °F 51 °F 76% 29.99 in 6 mi Calm Calm - -   Scattered Clouds
8:20 PM 59.0 °F 51.8 °F 77% 29.98 in 6.2 mi Calm Calm - N/A   Mostly Cloudy
8:50 PM 59.0 °F 51.8 °F 77% 30.01 in 6.2 mi Calm Calm - N/A   Mostly Cloudy
9:20 PM 60.8 °F 53.6 °F 77% 30.01 in - Variable 2.3 mph - N/A   Unknown
9:50 PM 59.0 °F 53.6 °F 82% 30.01 in - Variable 1.2 mph - N/A   Unknown
10:20 PM 59.0 °F 55.4 °F 88% 29.98 in - Variable 3.5 mph - N/A   Unknown
10:50 PM 59.0 °F 55.4 °F 88% 29.98 in 6.2 mi Calm Calm - N/A   Mostly Cloudy
11:20 PM 57.2 °F 53.6 °F 88% 29.98 in - Variable 2.3 mph - N/A   Unknown
11:50 PM 60.8 °F 55.4 °F 82% 29.98 in - East 6.9 mph - N/A   Unknown